Location: ????????
(55.7667°N, 37.4833°E)
Time: 03:56:59
(UTC+00:00)

Cosmos 2360 Rocket - Pass Details

Date: 19 May 2025
Orbit: 834 x 842 km, 71.0° (Epoch: 15 June)

Event Time Altitude Azimuth Distance (km) Brightness Sun altitude
Rises 21:26:17 0° 324° (NW) 3,396 6.3 -14.3°
Reaches altitude 10° 21:28:47 10° 320° (NW) 2,458 5.4 -14.3°
Maximum altitude 21:34:15 54° 245° (WSW) 1,008 2.4 -14.2°
Enters shadow 21:37:53 21° 175° (S) 1,802 3.3 -14.2°
